Location: Nairn
(57.5833°N, 3.8667°W)
Time: 16:24:42
(UTC+00:00)

S-56A Canister/Altair - Pass Details

Date: 02 December 2020
Orbit: 633 x 2499 km, 38.9° (Epoch: 19 January)

Event Time Altitude Azimuth Distance (km) Brightness Sun altitude
Rises 21:44:19 0° 252° (WSW) 5,261 12.1 -46.3°
Reaches altitude 10° 21:49:17 10° 238° (WSW) 3,895 11.2 -46.9°
Enters shadow 21:50:34 13° 233° (SW) 3,577 10.9 -47.0°
Maximum altitude 21:55:34 20° 198° (SSW) 2,708 - -47.5°
Drops below altitude 10° 22:00:31 10° 155° (SSE) 2,947 - -48.0°
Sets 22:03:37 0° 137° (SE) 3,637 - -48.3°
